(34359) = 2000 RN26

Discovered at Socorro on 2000-09-01 by LINEAR.

Orbit

Orbit type: Main Belt

Note: WebGL enabled browser required.

epoch2024-03-31.0
epoch JD2460400.5
perihelion date2022-07-14.79378
perihelion JD2459775.29378
argument of perihelion (°)61.01360
ascending node (°)248.03009
inclination (°)8.73568
eccentricity0.0582345
perihelion distance (AU)2.9821904
Tisserand w.r.t. Jupiter3.2
ΔV w.r.t. Earth (km/sec)11.0
semimajor axis (AU)3.1665956
mean anomaly (°)109.35490
mean daily motion (°/day)0.17491010
aphelion distance (AU)3.351
period (years)5.63
P-vector [x]0.62050245
P-vector [y]-0.76193917
P-vector [z]-0.18554085
Q-vector [x]0.77145238
Q-vector [y]0.55058718
Q-vector [z]0.31892788
absolute magnitude14.02
phase slope0.15
uncertainty0
referenceMPEC 2024-E123
observations used1650
oppositions22
arc length (days)9416
first opposition used1998
last opposition used2024
residual rms (arc-secs)0.67
perturbers coarse indicatorM-v
perturbers precise indicator003Ek
first observation date used1998-03-31.0
last observation date used2024-01-10.0
computer nameMPCLINUX
JD of orbit computation2456819.447989
perihelion JD uncertainty (days)2.9689E-04
argument of perihelion uncertainty (°)6.0222E-05
ascending node uncertainty (°)3.2257E-05
inclination uncertainty (°)5.4964E-06
eccentricity uncertainty 4.5714E-08
perihelion distance uncertainty (AU)1.4712E-07
Minimum Orbit Intersection Distances (in AU)
for orbit epoch: 2460200.5, reference: E2024-CG3
Mercury2.55535
Venus2.27366
Earth1.98434
Mars1.56407
Jupiter1.79989
Saturn5.74925
Uranus15.1843
Neptune26.6765

Observations

1674 total observations over interval: 1998 03 31.25704 – 2024 01 10.112969
These data are available for download (format description).

Date (UT) J2000 RA J2000 Dec Magn Location Ref
1998 03 31.25704 12 13 50.08 -13 29 09.4 18.5   704 – Lincoln Laboratory ETS, New Mexico MPS 22417
1998 03 31.29799 12 13 48.35 -13 28 53.6 18.5   704 – Lincoln Laboratory ETS, New Mexico MPS 22417
1998 03 31.31848 12 13 47.40 -13 28 47.2 18.6   704 – Lincoln Laboratory ETS, New Mexico MPS 22417
1998 03 31.33890 12 13 46.39 -13 28 42.2 18.7   704 – Lincoln Laboratory ETS, New Mexico MPS 22417
1998 04 01.22685 12 13 08.46 -13 23 21.5 18.5   704 – Lincoln Laboratory ETS, New Mexico MPS 22417
1998 04 01.24696 12 13 07.57 -13 23 16.5 18.9   704 – Lincoln Laboratory ETS, New Mexico MPS 22417
1998 04 01.26700 12 13 06.65 -13 23 08.3 18.8   704 – Lincoln Laboratory ETS, New Mexico MPS 22417
1998 04 01.28715 12 13 05.72 -13 23 07.5 18.8   704 – Lincoln Laboratory ETS, New Mexico MPS 22417
1998 04 19.23231 12 01 39.51 -11 29 15.7 19.2   704 – Lincoln Laboratory ETS, New Mexico MPS 22417
1998 04 19.25422 12 01 38.78 -11 29 09.3 19.3   704 – Lincoln Laboratory ETS, New Mexico MPS 22417
1998 04 19.27583 12 01 38.11 -11 28 59.9 19.3   704 – Lincoln Laboratory ETS, New Mexico MPS 22417
1998 04 19.29741 12 01 37.27 -11 28 51.2 19.5   704 – Lincoln Laboratory ETS, New Mexico MPS 22417
1998 04 19.31879 12 01 36.67 -11 28 43.8 19.5   704 – Lincoln Laboratory ETS, New Mexico MPS 22417
1999 06 15.30859 18 10 19.70 -18 44 21.9 19.0   704 – Lincoln Laboratory ETS, New Mexico MPS 22417
1999 06 15.32075 18 10 19.05 -18 44 20.0 19.3   704 – Lincoln Laboratory ETS, New Mexico MPS 22417
1999 06 15.33292 18 10 18.53 -18 44 18.1 19.2   704 – Lincoln Laboratory ETS, New Mexico MPS 22417
1999 06 15.34512 18 10 17.83 -18 44 17.1 19.1   704 – Lincoln Laboratory ETS, New Mexico MPS 22417
2000 09 01.27739 23 48 35.92 +12 01 29.6 18.7   704 – Lincoln Laboratory ETS, New Mexico MPS 18443
2000 09 01.29180 23 48 35.38 +12 01 27.6 19.1   704 – Lincoln Laboratory ETS, New Mexico MPS 18443
2000 09 01.30630 23 48 34.82 +12 01 24.0 19.1   704 – Lincoln Laboratory ETS, New Mexico MPS 18443
2000 09 01.32049 23 48 34.24 +12 01 22.1 19.7   704 – Lincoln Laboratory ETS, New Mexico MPS 18443
2000 09 01.33686 23 48 33.58 +12 01 19.0 19.6   704 – Lincoln Laboratory ETS, New Mexico MPS 18443
2000 09 03.26991 23 47 19.22 +11 55 13.1 17.9   704 – Lincoln Laboratory ETS, New Mexico MPS 18443
2000 09 03.28254 23 47 18.72 +11 55 11.1 17.7   704 – Lincoln Laboratory ETS, New Mexico MPS 18443
2000 09 03.29525 23 47 18.18 +11 55 08.7 18.2   704 – Lincoln Laboratory ETS, New Mexico MPS 18443
2000 09 03.30797 23 47 17.69 +11 55 06.5 17.9   704 – Lincoln Laboratory ETS, New Mexico MPS 18443
2000 09 05.32226 23 45 57.70 +11 48 05.0 18.6 R 699 – Lowell Observatory-LONEOS MPS 18443
2000 09 05.33604 23 45 57.13 +11 48 03.2   699 – Lowell Observatory-LONEOS MPS 18443
2000 09 05.34986 23 45 56.59 +11 47 59.8   699 – Lowell Observatory-LONEOS MPS 18443
2000 09 05.36372 23 45 55.98 +11 47 56.6   699 – Lowell Observatory-LONEOS MPS 18443
2000 09 22.34621 23 33 56.92 +10 26 02.5 19.1   608 – Haleakala-AMOS MPS 19552
2000 09 22.35854 23 33 56.40 +10 25 58.8 19.5   608 – Haleakala-AMOS MPS 19552
2000 09 22.37042 23 33 55.88 +10 25 54.0 19.3   608 – Haleakala-AMOS MPS 19552
2000 09 23.25559 23 33 18.44 +10 20 43.1 18.6   704 – Lincoln Laboratory ETS, New Mexico MPS 19552
2000 09 23.27049 23 33 17.69 +10 20 37.2 18.8   704 – Lincoln Laboratory ETS, New Mexico MPS 19552
2000 09 23.27147 23 33 17.75 +10 20 38.4 18.3 R 699 – Lowell Observatory-LONEOS MPS 30103
2000 09 23.28496 23 33 17.10 +10 20 32.6 18.1   704 – Lincoln Laboratory ETS, New Mexico MPS 19552
2000 09 23.28696 23 33 17.07 +10 20 31.6   699 – Lowell Observatory-LONEOS MPS 30103
2000 09 23.29941 23 33 16.47 +10 20 27.9 17.9   704 – Lincoln Laboratory ETS, New Mexico MPS 19552
2000 09 23.30237 23 33 16.45 +10 20 26.9   699 – Lowell Observatory-LONEOS MPS 30103
2000 09 23.31382 23 33 15.83 +10 20 22.2 17.8   704 – Lincoln Laboratory ETS, New Mexico MPS 19552
2000 09 23.31783 23 33 15.72 +10 20 20.8   699 – Lowell Observatory-LONEOS MPS 30103
2000 09 24.87313 23 32 10.80 +10 11 06.6 17.9 V 049 – Uppsala-Kvistaberg MPS 19552
2000 09 24.88624 23 32 10.26 +10 11 01.7 18.1 V 049 – Uppsala-Kvistaberg MPS 19552
2000 09 24.89925 23 32 09.69 +10 10 57.2 18.4 V 049 – Uppsala-Kvistaberg MPS 19552
2000 09 27.25097 23 30 33.06 +09 56 40.0 18.7   704 – Lincoln Laboratory ETS, New Mexico MPS 19552
2000 09 27.26607 23 30 32.44 +09 56 34.2 19.0   704 – Lincoln Laboratory ETS, New Mexico MPS 19552
2000 09 27.28114 23 30 31.78 +09 56 28.9 18.7   704 – Lincoln Laboratory ETS, New Mexico MPS 19552
2000 09 27.29622 23 30 31.14 +09 56 23.3 19.1   704 – Lincoln Laboratory ETS, New Mexico MPS 19552
2000 09 27.31131 23 30 30.53 +09 56 17.3 18.6   704 – Lincoln Laboratory ETS, New Mexico MPS 19552
2000 10 06.33919 23 24 50.48 +08 59 17.3 19.2   608 – Haleakala-AMOS MPS 19552
2000 10 06.34952 23 24 50.10 +08 59 13.6 19.0   608 – Haleakala-AMOS MPS 19552
2000 10 06.36091 23 24 49.71 +08 59 09.3 18.8   608 – Haleakala-AMOS MPS 19552
2000 10 25.15500 23 17 03.69 +07 05 28.6 19.3   704 – Lincoln Laboratory ETS, New Mexico MPS 21070
2000 10 25.16860 23 17 03.43 +07 05 23.4 18.9   704 – Lincoln Laboratory ETS, New Mexico MPS 21070
2000 10 25.18265 23 17 03.23 +07 05 18.7 19.3   704 – Lincoln Laboratory ETS, New Mexico MPS 21070
2000 10 25.19707 23 17 02.96 +07 05 14.4 19.3   704 – Lincoln Laboratory ETS, New Mexico MPS 21070
2000 10 30.18440 23 16 08.82 +06 39 32.1 19.4   704 – Lincoln Laboratory ETS, New Mexico MPS 21070
2000 10 30.19867 23 16 08.66 +06 39 26.8 19.3   704 – Lincoln Laboratory ETS, New Mexico MPS 21070
2000 10 30.21276 23 16 08.51 +06 39 23.1 19.5   704 – Lincoln Laboratory ETS, New Mexico MPS 21070
2000 10 30.22718 23 16 08.39 +06 39 18.6 19.0   704 – Lincoln Laboratory ETS, New Mexico MPS 21070
2001 11 09.38062 05 12 32.77 +22 46 56.7 19.6   704 – Lincoln Laboratory ETS, New Mexico MPS 40229
2001 11 09.39500 05 12 32.19 +22 46 52.8 19.6   704 – Lincoln Laboratory ETS, New Mexico MPS 40229
2001 11 09.40936 05 12 31.67 +22 46 50.7 19.5   704 – Lincoln Laboratory ETS, New Mexico MPS 40229
2001 11 09.42373 05 12 31.17 +22 46 48.6 19.7   704 – Lincoln Laboratory ETS, New Mexico MPS 40229
2001 11 12.36006 05 10 42.76 +22 38 31.4 18.8   704 – Lincoln Laboratory ETS, New Mexico MPS 41819
2001 11 12.38899 05 10 41.55 +22 38 25.8 19.6   704 – Lincoln Laboratory ETS, New Mexico MPS 41819
2001 11 12.40347 05 10 41.02 +22 38 24.5 18.9   704 – Lincoln Laboratory ETS, New Mexico MPS 41819
2001 11 20.36369 05 05 02.95 +22 14 11.1 19.8   704 – Lincoln Laboratory ETS, New Mexico MPS 41819
2001 11 20.39301 05 05 01.47 +22 14 05.7 19.3   704 – Lincoln Laboratory ETS, New Mexico MPS 41819
2001 11 20.40768 05 05 00.77 +22 14 02.4 19.3   704 – Lincoln Laboratory ETS, New Mexico MPS 41819
2001 11 21.36839 05 04 16.28 +22 10 58.6 19.5   704 – Lincoln Laboratory ETS, New Mexico MPS 41819
2001 11 21.38307 05 04 15.62 +22 10 55.0 20.0   704 – Lincoln Laboratory ETS, New Mexico MPS 41819
2001 11 21.41242 05 04 14.23 +22 10 48.9 19.6   704 – Lincoln Laboratory ETS, New Mexico MPS 41819
2001 11 21.42712 05 04 13.49 +22 10 46.9 19.4   704 – Lincoln Laboratory ETS, New Mexico MPS 41819
2001 11 25.30937 05 01 07.48 +21 58 01.1 18.5   704 – Lincoln Laboratory ETS, New Mexico MPS 41819
2001 11 25.32537 05 01 06.65 +21 57 56.6 19.6   704 – Lincoln Laboratory ETS, New Mexico MPS 41819
2001 11 25.34011 05 01 05.91 +21 57 55.6 19.4   704 – Lincoln Laboratory ETS, New Mexico MPS 41819
2001 11 26.28928 05 00 19.23 +21 54 43.5 18.9   704 – Lincoln Laboratory ETS, New Mexico MPS 41819
2001 11 26.30411 05 00 18.44 +21 54 40.1 19.3   704 – Lincoln Laboratory ETS, New Mexico MPS 41819
2001 11 26.31886 05 00 17.61 +21 54 37.0 18.8   704 – Lincoln Laboratory ETS, New Mexico MPS 41819
2001 11 27.30252 04 59 28.81 +21 51 17.6 19.1   704 – Lincoln Laboratory ETS, New Mexico MPS 43446
2001 11 27.31530 04 59 28.17 +21 51 15.2 18.9   704 – Lincoln Laboratory ETS, New Mexico MPS 43446
2001 11 27.31798 04 59 28.02 +21 51 14.0 19.1   704 – Lincoln Laboratory ETS, New Mexico MPS 43446
2001 11 27.33099 04 59 27.33 +21 51 11.6 18.6   704 – Lincoln Laboratory ETS, New Mexico MPS 43446
